Snowfall_Accumulation
0.5 1.3 1.8 0.5 0.5 0.6 0.7 1.2 1.2 0.6 0.2 0.5 0.7 0.3 0.0 0.0 0.1 0.1 0.0 0.0 0.0 0.0 0.0 0.0 0.0 0.0 0.0 0.0 0.0 0.0 0.0 0.0 0.0 0.0 0.0 0.0 0.0 0.0 0.0 0.0 0.0 0.0 0.0 0.0
1.6 1.8 0.2 0.1 0.3 0.6 1.1 1.6 1.3 0.4 0.2 0.6 0.8 0.3 0.0 0.0 0.1 0.1 0.0 0.0 0.0 0.0 0.0 0.0 0.0 0.0 0.0 0.0 0.0 0.0 0.0 0.0 0.0 0.0 0.0 0.0 0.0 0.0 0.0 0.0 0.0 0.0 0.0 0.0
2.1 1.1 0.1 0.3 0.6 0.9 1.1 1.3 1.0 1.0 0.4 0.4 1.0 0.6 0.0 0.0 0.0 0.0 0.0 0.0 0.0 0.0 0.0 0.0 0.0 0.0 0.0 0.0 0.0 0.0 0.0 0.0 0.0 0.0 0.0 0.0 0.0 0.0 0.0 0.0 0.0 0.0 0.0 0.0
1.4 0.3 0.2 1.0 1.0 0.8 1.1 0.3 0.5 1.0 1.9 1.7 1.4 2.1 0.2 0.0 0.0 0.0 0.0 0.0 0.0 0.0 0.0 0.0 0.0 0.0 0.0 0.0 0.0 0.0 0.0 0.0 0.0 0.0 0.0 0.0 0.0 0.0 0.0 0.0 0.0 0.0 0.0 0.0
1.6 0.5 0.6 1.2 1.0 0.5 0.6 0.2 0.4 0.8 2.1 2.8 1.4 2.7 0.6 0.2 0.1 0.1 0.0 0.0 0.0 0.0 0.0 0.0 0.0 0.0 0.0 0.0 0.0 0.0 0.0 0.0 0.0 0.0 0.0 0.0 0.0 0.0 0.0 0.0 0.0 0.0 0.0 0.0
0.9 0.4 0.9 0.9 0.2 0.3 0.4 0.5 0.6 1.1 2.7 6.7 1.8 2.2 1.1 0.6 0.9 0.4 0.0 0.0 0.0 0.0 0.0 0.0 0.0 0.0 0.0 0.0 0.0 0.0 0.0 0.0 0.0 0.0 0.0 0.0 0.0 0.0 0.0 0.0 0.0 0.0 0.0 0.0
2.6 0.8 0.6 0.5 1.3 0.8 1.4 4.3 10.0 10.1 9.8 5.1 0.4 1.3 1.1 0.4 0.2 0.2 0.1 0.1 0.1 0.1 0.0 0.0 0.1 0.1 0.0 0.0 0.0 0.0 0.0 0.0 0.0 0.0 0.0 0.0 0.0 0.0 0.0 0.0 0.0 0.0 0.1 0.0
4.4 2.9 0.8 0.9 1.2 1.7 2.1 4.0 8.9 7.9 4.4 1.2 0.3 0.9 0.9 0.3 0.2 0.2 0.2 0.2 0.1 0.1 0.1 0.0 0.1 0.1 0.1 0.0 0.0 0.0 0.0 0.0 0.0 0.0 0.0 0.0 0.0 0.0 0.0 0.0 0.0 0.1 0.1 0.1
4.8 3.1 0.7 0.6 0.4 1.1 2.2 3.8 2.7 5.3 3.9 2.1 1.0 0.6 0.5 0.3 0.2 0.1 0.1 0.2 0.2 0.1 0.0 0.1 0.1 0.1 0.0 0.0 0.0 0.0 0.0 0.0 0.0 0.0 0.0 0.0 0.0 0.0 0.0 0.0 0.0 0.1 0.1 0.1
4.5 4.3 1.4 0.5 0.5 0.6 1.0 1.8 3.8 8.6 7.7 3.4 1.2 0.7 0.9 0.6 0.4 0.2 0.1 0.2 0.2 0.2 0.2 0.2 0.2 0.2 0.1 0.1 0.0 0.0 0.0 0.0 0.0 0.0 0.0 0.0 0.0 0.0 0.0 0.0 0.1 0.1 0.1 0.1
3.8 5.4 3.1 1.8 2.3 2.4 2.0 2.7 4.5 7.0 6.4 4.5 2.2 1.2 1.1 0.6 0.5 0.5 0.4 0.2 0.2 0.2 0.3 0.3 0.4 0.3 0.2 0.1 0.1 0.0 0.0 0.0 0.0 0.0 0.0 0.0 0.0 0.0 0.0 0.1 0.1 0.1 0.1 0.1
3.5 5.6 5.0 2.2 1.3 1.0 2.2 2.7 3.8 7.7 6.5 3.9 2.9 1.2 0.5 0.6 0.5 0.5 0.6 0.5 0.3 0.3 0.3 0.3 0.6 0.5 0.3 0.3 0.2 0.1 0.0 0.0 0.0 0.0 0.0 0.0 0.0 0.0 0.1 0.1 0.1 0.1 0.1 0.1
6.1 9.2 8.8 3.0 2.1 2.1 3.5 3.4 3.5 4.2 4.7 4.1 3.2 1.0 0.3 0.4 0.4 0.4 0.5 0.5 0.4 0.3 0.3 0.3 0.6 0.6 0.7 0.5 0.4 0.3 0.1 0.0 0.0 0.0 0.0 0.0 0.0 0.0 0.1 0.1 0.1 0.0 0.1 0.1
6.4 11.5 7.7 6.0 4.0 4.2 4.2 3.4 3.2 4.9 6.7 3.6 1.2 0.7 0.6 0.5 0.4 0.4 0.5 0.6 0.5 0.4 0.4 0.4 0.4 0.5 0.5 0.4 0.5 0.5 0.2 0.0 0.0 0.0 0.0 0.0 0.0 0.1 0.0 0.1 0.1 0.2 0.1 0.5
7.0 10.1 3.9 1.9 1.5 2.1 2.4 2.2 2.4 3.5 3.6 2.9 0.7 0.6 0.8 0.8 0.5 0.6 0.7 0.7 0.7 0.6 0.5 0.4 0.4 0.4 0.4 0.7 0.5 0.3 0.2 0.1 0.1 0.0 0.0 0.0 0.0 0.1 0.0 0.1 0.1 0.2 0.4 0.5
7.7 8.9 4.1 2.0 1.0 1.7 1.9 1.2 1.3 1.5 1.4 1.2 0.6 0.4 0.3 0.3 0.4 0.5 0.6 0.7 0.9 0.9 0.8 0.5 0.4 0.5 0.4 0.7 0.4 0.3 0.2 0.2 0.1 0.1 0.1 0.0 0.0 0.1 0.2 0.2 0.1 0.3 0.4 0.7
8.3 8.9 7.8 4.4 1.1 3.1 3.9 1.3 1.0 1.0 1.0 1.1 1.3 0.9 0.6 0.3 0.4 0.6 0.7 0.8 1.1 1.1 0.9 0.6 0.5 0.5 0.5 0.5 0.4 0.3 0.3 0.2 0.2 0.1 0.1 0.0 0.1 0.1 0.2 0.2 0.2 0.4 0.7 0.8
6.2 8.0 10.8 7.7 5.3 7.4 2.1 0.9 0.9 1.2 1.4 1.4 1.2 1.0 0.8 0.5 0.4 0.7 0.9 1.2 1.1 0.9 0.8 0.6 0.6 0.6 0.5 0.4 0.3 0.3 0.2 0.3 0.2 0.1 0.1 0.0 0.1 0.1 0.2 0.3 0.5 0.4 0.6 0.7
2.2 6.6 12.3 11.4 8.2 3.9 1.0 0.9 1.5 1.7 1.9 1.6 1.2 0.8 0.5 0.3 0.3 0.5 0.6 0.9 1.0 0.9 0.6 0.5 0.6 0.7 0.4 0.3 0.3 0.5 0.2 0.3 0.1 0.1 0.0 0.0 0.1 0.1 0.2 0.2 0.4 0.4 0.6 0.5
2.1 5.3 12.0 12.4 9.0 3.8 1.4 0.9 0.8 1.1 2.2 1.3 1.3 1.3 0.8 0.6 0.8 0.8 0.7 0.7 0.8 0.5 0.4 0.5 0.5 0.6 0.4 0.3 0.3 0.3 0.2 0.2 0.2 0.1 0.0 0.0 0.1 0.1 0.2 0.1 0.2 0.2 0.4 0.6
5.2 8.6 11.2 9.2 7.3 2.8 1.3 1.0 0.8 2.2 3.1 1.4 1.3 1.4 1.3 1.1 1.3 1.0 0.6 0.6 0.7 0.6 0.6 0.5 0.6 0.7 0.4 0.3 0.4 0.3 0.3 0.2 0.2 0.2 0.1 0.0 0.0 0.0 0.1 0.1 0.3 0.3 0.3 0.5
4.5 6.8 6.6 5.9 7.0 3.4 1.2 1.3 2.5 2.7 1.6 1.4 1.2 1.0 1.0 0.9 0.7 0.6 0.6 0.6 0.7 0.6 0.7 0.6 0.7 0.6 0.4 0.3 0.2 0.4 0.4 0.4 0.2 0.2 0.1 0.0 0.0 0.0 0.1 0.2 0.4 0.3 0.3 0.4
3.1 3.8 4.2 3.6 2.4 1.2 1.3 1.7 1.7 1.5 1.5 1.3 1.2 0.9 0.8 0.8 0.7 0.6 0.5 0.6 0.6 0.6 0.6 0.6 0.8 0.5 0.5 0.5 0.2 0.4 0.5 0.5 0.3 0.3 0.1 0.1 0.0 0.1 0.1 0.3 0.5 0.5 0.4 0.9
1.9 1.6 2.7 2.6 1.0 0.9 0.9 1.1 1.1 1.0 1.3 1.1 1.0 1.0 1.0 0.9 0.8 0.7 0.6 0.5 0.6 0.5 0.6 0.6 0.7 0.7 0.5 0.6 0.2 0.3 0.4 0.5 0.5 0.4 0.2 0.1 0.1 0.1 0.2 0.3 0.4 0.6 1.0 1.8
1.6 1.6 2.1 2.0 0.9 0.9 0.7 0.6 0.6 0.8 0.8 0.9 0.8 0.8 0.8 0.8 0.7 0.6 0.6 0.6 0.6 0.8 0.6 0.6 0.8 0.6 0.5 0.7 0.3 0.3 0.3 0.6 0.8 0.4 0.3 0.2 0.2 0.2 0.3 0.3 0.4 0.8 1.1 2.4
0.8 1.2 1.9 1.8 1.0 1.2 0.8 0.4 0.3 0.5 0.7 0.7 0.8 0.6 0.5 0.5 0.5 0.5 0.6 0.7 0.8 0.8 0.7 0.4 0.4 0.4 0.3 0.2 0.4 0.3 0.3 0.6 0.8 0.5 0.3 0.3 0.3 0.3 0.4 0.4 0.4 0.5 0.8 1.4